Location: Aalen
(48.8330°N, 10.1000°E)
Time: 09:14:52
(UTC+02:00)

Transit 2A - Pass Details

Date: 05 August 2021
Orbit: 594 x 964 km, 66.7° (Epoch: 24 September)

Event Time Altitude Azimuth Distance (km) Brightness Sun altitude
Rises 11:54:07 0° 322° (NW) 3,096 8.8 53.0°
Reaches altitude 10° 11:57:51 10° 351° (N) 2,264 8.2 53.4°
Maximum altitude 12:00:08 13° 17° (NNE) 2,130 8.2 53.6°
Drops below altitude 10° 12:02:30 10° 43° (NE) 2,374 8.6 53.8°
Sets 12:06:37 0° 71° (ENE) 3,401 9.5 54.2°
